[[{"header":{"parameterUnit":"m.s-1","parameterCategory":1,"la1":30.2991,"la2":30.254,"lo1":-89.0895,"lo2":-89.0444,"dy":0.0017,"dx":0.0017,"nx":28,"ny":28,"refTime":"2024-03-21T21:00:00:Z","depth":0,"parameterNumber":2,"parameterNumberName":"U-component_of_WINDS"},"data":[0,0,0,0,0,0,0,0,0,0,0,0,0,0,0,0,0,0,0,0,0,0,0,0,0,0,0,0,0,0,0,0,0,0,0,0,0,0,0,0,0,0,0,0,0,0,0,0,0,0,0,0,0,0,0,0,0,0,-4.0006,-4.0006,0,-4.0043,-4.0044,-4.0044,-3.9995,-3.9993,-3.9991,-3.999,-4.0026,-4.0029,-4.0031,0,0,0,0,0,0,0,0,0,0,0,0,0,-3.9891,-3.9893,-4.0006,-4.0006,-4.0007,-4.0043,-4.0044,-4.0044,-3.9995,-3.9993,-3.9991,-3.9989,-4.0025,-4.0028,-4.0031,0,0,0,0,0,0,0,0,0,0,0,0,0,-3.9936,-3.9894,-4.0006,-3.9987,-3.9986,-4.0043,-4.0044,-4.0044,-3.9996,-3.9993,-3.999,-3.9988,-4.0024,-4.0028,-4.0032,-4.0109,0,0,-4.0044,-4.0046,0,0,0,0,0,0,0,0,-3.9933,-3.994,-3.9989,-3.9988,-3.9987,-4.0012,-4.0016,-4.0066,-3.9996,-3.9992,-3.999,-3.9987,-4.0023,-4.0027,-4.004,-4.0111,-4.0112,-4.0044,-4.0047,-4.0048,-4.0049,0,0,0,0,0,0,0,-3.993,-3.9938,-4.002,-3.999,-3.9989,-3.9976,-3.9979,-4.0025,-4.0022,-3.9992,-3.9989,-3.9994,-4.0022,-4.0036,-4.004,-4.0113,-4.0044,-4.0048,-4.005,-4.0051,-4.0248,-4.0251,0,0,0,0,0,0,-3.993,-3.9936,-4.0019,-4.0022,-3.9953,-3.998,-3.9984,-4.0006,-4.0021,-4.0021,-3.9996,-3.9991,-4.0031,-4.0036,-4.0041,-4.0131,-4.0048,-4.0052,-4.0054,-4.0245,-4.0248,-4.0252,0,0,0,0,0,0,-3.9927,-3.9937,-4.0018,-3.9978,-3.9987,-3.9985,-4.0011,-4.0009,-4.0022,-4.0024,-4.0023,-4.0011,-4.0029,-4.0036,-4.0092,-4.0132,-4.0054,-4.0057,-4.0242,-4.0246,-4.025,-4.0313,0,0,0,0,0,0,-3.9924,-3.9937,-3.9966,-3.9979,-3.9989,-4.0069,-4.0013,-4.0011,-4.003,-4.0024,-4.0038,-4.0038,-4.0027,-4.0087,-4.0096,-4.0136,-4.006,-4.0238,-4.0244,-4.0249,-4.0307,-4.0319,-4.0329,0,0,0,0,0,-3.992,-3.9982,-3.9968,-3.9979,-4.0026,-4.0071,-4.0077,-4.0064,-4.0033,-4.0062,-4.0064,-4.0037,-4.0127,-4.0093,-4.0103,-4.0145,-4.0235,-4.0242,-4.0248,-4.0302,-4.0316,-4.0328,0,0,0,0,0,0,-3.9974,-3.9984,-3.9968,-4.0036,-4.0053,-4.0063,-4.0099,-4.008,-4.0105,-4.0099,-4.0082,-4.0085,-4.0145,-4.0151,-4.0113,-4.022,-4.0176,-4.0185,-4.0213,-4.0227,-4.0237,-4.0234,-4.0064,0,0,0,0,0,-3.9994,-4.003,-4.0036,-4.0096,-4.0106,-4.0101,-4.012,-4.0109,-4.0126,-4.0132,-4.0138,-4.0154,-4.0186,-4.0207,-4.0237,-4.0309,-4.031,-4.0342,-4.0353,-4.0362,-4.0369,-4.0406,-4.042,-4.0273,-4.0273,-4.0273,0,0,-4.0035,-4.0045,-4.0068,-4.0107,-4.0119,-4.0156,-4.0107,-4.0149,-4.0176,-4.0138,-4.0192,-4.0197,-4.0214,-4.0279,-4.0307,-4.0285,-4.041,-4.037,-4.0377,-4.0379,-4.0414,-4.0428,-4.0441,-4.0277,-4.0276,-4.0276,0,0,-4.0128,-4.014,-4.019,-4.0204,-4.0223,-4.022,-4.0232,-4.0245,-4.0246,-4.03,-4.0273,-4.0305,-4.036,-4.0373,-4.0387,-4.0487,-4.0463,-4.0497,-4.0552,-4.0589,-4.0601,-4.0611,-4.0645,-4.0657,-4.0505,-4.0505,-4.0505,0,-4.0176,-4.0231,-4.0219,-4.0262,-4.0279,-4.0249,-4.0299,-4.0312,-4.034,-4.0352,-4.0327,-4.0396,-4.0406,-4.0472,-4.0497,-4.051,-4.0522,-4.0494,-4.06,-4.061,-4.062,-4.0652,-4.0665,-4.0509,-4.0509,-4.0508,-4.0508,0,-4.0289,-4.0328,-4.0366,-4.0394,-4.0416,-4.0462,-4.0456,-4.048,-4.0467,-4.0467,-4.0521,-4.0533,-4.0563,-4.0579,-4.0567,-4.0644,-4.0629,-4.0603,-4.0558,-4.0638,-4.0667,-4.068,-4.0514,-4.0513,-4.0512,-4.0511,0,0,-4.0415,-4.0436,-4.045,-4.0462,-4.0481,-4.051,-4.0556,-4.0586,-4.0606,-4.0627,-4.0663,-4.0712,-4.0688,-4.0704,-4.0693,-4.0726,-4.0802,-4.0695,-4.0696,-4.0713,-4.0886,-4.0904,-4.0918,-4.0788,-4.079,-4.0792,-4.0884,0,-4.0506,-4.0585,-4.0575,-4.065,-4.0685,-4.0657,-4.0696,-4.0712,-4.0713,-4.0743,-4.0744,-4.0777,-4.0744,-4.0753,-4.0785,-4.0786,-4.0836,-4.078,-4.082,-4.0822,-4.0814,-4.0934,-4.0953,-4.1038,-4.0895,-4.0897,-4.0899,0,-4.0623,-4.0648,-4.0727,-4.074,-4.0755,-4.079,-4.0817,-4.0846,-4.0864,-4.0862,-4.0881,-4.0865,-4.091,-4.0866,-4.0927,-4.0889,-4.0905,-4.0909,-4.0912,-4.0913,-4.0863,-4.0936,-4.1066,-4.1078,-4.0917,-4.0916,-4.0915,0,-4.0705,-4.0758,-4.0812,-4.0823,-4.0841,-4.0866,-4.0875,-4.089,-4.0909,-4.0933,-4.0945,-4.0974,-4.0989,-4.1012,-4.1004,-4.0973,-4.1066,-4.1022,-4.1064,-4.1065,-4.1083,-4.1081,-4.1215,-4.1098,-4.1098,-4.1097,-4.1097,0,-4.0806,-4.0855,-4.0848,-4.0881,-4.0934,-4.0923,-4.0976,-4.0981,-4.0995,-4.1028,-4.1006,-4.1037,-4.1026,-4.1057,-4.1051,-4.1101,-4.1109,-4.1108,-4.1105,-4.1108,-4.1108,-4.1117,-4.111,-4.1101,-4.11,-4.1099,-4.1099,0,-4.0905,-4.0903,-4.0959,-4.0972,-4.0976,-4.1015,-4.1025,-4.1056,-4.1056,-4.1098,-4.1107,-4.1107,-4.1142,-4.1137,-4.1175,-4.1171,-4.1233,-4.1225,-4.1227,-4.1225,-4.1267,-4.1262,-4.1408,-4.1426,-4.13,-4.1301,-4.1302,0,-4.0969,-4.1006,-4.1023,-4.1043,-4.1054,-4.1087,-4.1107,-4.1098,-4.1119,-4.1142,-4.1169,-4.1202,-4.1227,-4.1284,-4.1287,-4.1317,-4.1307,-4.1356,-4.1311,-4.1313,-4.1305,-4.1302,-4.1305,-4.1364,-4.1366,-4.1367,-4.1368,0,-4.1082,-4.1079,-4.1108,-4.1138,-4.1162,-4.1184,-4.1204,-4.1222,-4.1215,-4.1239,-4.1275,-4.1295,-4.1334,-4.1367,-4.1395,-4.1403,-4.1384,-4.1383,-4.1394,-4.1396,-4.1395,-4.1394,-4.1249,-4.1379,-4.1378,-4.1377,-4.1376,-4.1376,-4.1164,-4.1195,-4.1211,-4.1245,-4.1259,-4.1278,-4.1307,-4.1312,-4.1341,-4.1373,-4.1366,-4.1405,-4.1422,-4.1457,-4.1469,-4.1499,-4.1481,-4.1498,-4.1501,-4.1505,-4.1509,-4.1392,-4.1505,-4.1504,-4.1504,-4.1504,-4.1504,0,-4.1274,-4.1284,-4.1314,-4.1343,-4.1369,-4.1351,-4.1372,-4.1395,-4.143,-4.1448,-4.1474,-4.1514,-4.1546,-4.1552,-4.1582,-4.1605,-4.1597,-4.1613,-4.161,-4.1612,-4.1524,-4.1511,-4.1619,-4.1619,-4.1619,-4.1619,-4.1619,-4.1619,-4.1334,-4.1385,-4.1384,-4.1442,-4.1451,-4.149,-4.1504,-4.1522,-4.1535,-4.1581,-4.1608,-4.1612,-4.1625,-4.1656,-4.1684,-4.1685,-4.1696,-4.1715,-4.1712,-4.163,-4.1618,-4.1607,-4.1594,-4.1718,-4.1718,-4.1797,-4.1798,-4.1798]},{"header":{"parameterUnit":"m.s-1","parameterCategory":1,"la1":30.2991,"la2":30.254,"lo1":-89.0895,"lo2":-89.0444,"dy":0.0017,"dx":0.0017,"nx":28,"ny":28,"refTime":"2024-03-21T21:00:00:Z","depth":0,"parameterNumber":3,"parameterNumberName":"V-component_of_WINDS"},"data":[0,0,0,0,0,0,0,0,0,0,0,0,0,0,0,0,0,0,0,0,0,0,0,0,0,0,0,0,0,0,0,0,0,0,0,0,0,0,0,0,0,0,0,0,0,0,0,0,0,0,0,0,0,0,0,0,0,0,1.2502,1.2501,0,1.2492,1.2492,1.2492,1.2409,1.2407,1.2405,1.2403,1.2395,1.2397,1.2398,0,0,0,0,0,0,0,0,0,0,0,0,0,1.2452,1.2453,1.2502,1.2501,1.2501,1.2492,1.2492,1.2492,1.2409,1.2407,1.2404,1.2402,1.2394,1.2396,1.2398,0,0,0,0,0,0,0,0,0,0,0,0,0,1.2461,1.2454,1.2502,1.2459,1.2455,1.2492,1.2492,1.2492,1.241,1.2407,1.2403,1.2401,1.2394,1.2396,1.2399,1.2476,0,0,1.2407,1.2408,0,0,0,0,0,0,0,0,1.2461,1.2463,1.2465,1.2462,1.2458,1.2448,1.2471,1.2487,1.241,1.2427,1.2403,1.2399,1.2415,1.2416,1.2421,1.2476,1.2476,1.2407,1.2408,1.241,1.241,0,0,0,0,0,0,0,1.246,1.2463,1.2498,1.2466,1.2461,1.2441,1.2439,1.2474,1.2439,1.2425,1.2419,1.2419,1.2413,1.2419,1.242,1.2476,1.2407,1.2409,1.2411,1.2412,1.2596,1.2599,0,0,0,0,0,0,1.2465,1.2463,1.2498,1.2497,1.2452,1.2445,1.2442,1.2454,1.2438,1.2433,1.2422,1.2415,1.2416,1.2417,1.242,1.2511,1.2409,1.2412,1.2413,1.2593,1.2597,1.2601,0,0,0,0,0,0,1.2464,1.2469,1.2498,1.2479,1.2481,1.2449,1.2463,1.2456,1.2462,1.2435,1.2429,1.2434,1.2413,1.2416,1.2463,1.2509,1.2413,1.2415,1.2589,1.2594,1.2599,1.2693,0,0,0,0,0,0,1.2463,1.2469,1.2497,1.248,1.2482,1.2542,1.2466,1.2458,1.2466,1.2458,1.2445,1.244,1.2411,1.246,1.2466,1.2511,1.2417,1.2585,1.2591,1.2597,1.2686,1.2701,1.2714,0,0,0,0,0,1.2462,1.2524,1.2499,1.2504,1.2517,1.2544,1.2546,1.251,1.247,1.2499,1.2482,1.2441,1.2503,1.2465,1.2471,1.2518,1.2582,1.2589,1.2597,1.268,1.2698,1.2713,0,0,0,0,0,0,1.2549,1.2521,1.2493,1.2552,1.2551,1.253,1.2565,1.2531,1.2542,1.2533,1.249,1.2488,1.2542,1.2534,1.2493,1.2594,1.2535,1.2545,1.2596,1.2614,1.2627,1.2628,1.242,0,0,0,0,0,1.2575,1.2598,1.2573,1.2628,1.2629,1.2598,1.2608,1.2581,1.2579,1.2578,1.2565,1.2565,1.2585,1.2598,1.2615,1.2684,1.2681,1.272,1.2734,1.2745,1.2754,1.2792,1.2809,1.2625,1.2625,1.2625,0,0,1.2629,1.2617,1.2634,1.2645,1.2641,1.2668,1.2598,1.2628,1.2648,1.2583,1.2627,1.2618,1.2615,1.2674,1.2699,1.267,1.2804,1.2755,1.2764,1.2767,1.2802,1.2819,1.2834,1.263,1.263,1.2629,0,0,1.2741,1.2733,1.2778,1.2776,1.2771,1.275,1.2762,1.2746,1.2738,1.2781,1.2733,1.2757,1.2791,1.2792,1.2797,1.2911,1.2874,1.2918,1.2991,1.3029,1.3043,1.3056,1.3098,1.3114,1.2927,1.2927,1.2927,0,1.2809,1.2846,1.2806,1.2841,1.2848,1.279,1.2836,1.2836,1.2837,1.2844,1.2811,1.2854,1.2848,1.2907,1.2936,1.2941,1.2954,1.2919,1.3044,1.3056,1.3068,1.3108,1.3124,1.2932,1.2932,1.2931,1.2931,0,1.2931,1.2958,1.2995,1.2997,1.3008,1.3049,1.3017,1.3033,1.3006,1.2989,1.3035,1.3026,1.3041,1.3052,1.3026,1.3109,1.3091,1.3052,1.2992,1.3091,1.3128,1.3143,1.294,1.2938,1.2936,1.2935,0,0,1.3096,1.3078,1.3092,1.3093,1.3084,1.3105,1.3144,1.3158,1.3173,1.3177,1.3209,1.3241,1.3205,1.321,1.3183,1.3216,1.331,1.3173,1.3172,1.32,1.3403,1.3434,1.3452,1.3285,1.3288,1.329,1.3404,0,1.3205,1.3269,1.3236,1.3305,1.333,1.3276,1.331,1.3309,1.3295,1.3316,1.33,1.3324,1.3273,1.3277,1.3307,1.3292,1.3351,1.3283,1.3317,1.3318,1.332,1.3471,1.3503,1.3612,1.3418,1.3421,1.3422,0,1.3341,1.335,1.3422,1.341,1.3419,1.345,1.3461,1.3481,1.348,1.3467,1.3475,1.3441,1.3479,1.3421,1.3474,1.343,1.3441,1.3436,1.344,1.3442,1.3377,1.348,1.3645,1.3662,1.3445,1.3443,1.3441,0,1.3457,1.3487,1.3534,1.3537,1.3524,1.3547,1.3543,1.3538,1.355,1.356,1.3567,1.3582,1.359,1.3603,1.3575,1.3534,1.3633,1.3571,1.3625,1.3626,1.3649,1.3648,1.382,1.3655,1.3655,1.3654,1.3654,0,1.3583,1.3629,1.3586,1.3616,1.3667,1.3628,1.368,1.367,1.3667,1.3695,1.3649,1.3676,1.3636,1.366,1.3638,1.3687,1.369,1.3683,1.3677,1.3688,1.3689,1.3695,1.3688,1.3659,1.3658,1.3657,1.3656,0,1.3721,1.3694,1.3742,1.3726,1.3723,1.3762,1.3748,1.3776,1.3759,1.3794,1.38,1.3774,1.38,1.3773,1.3796,1.3781,1.3848,1.383,1.3849,1.3844,1.39,1.3896,1.4084,1.4107,1.3925,1.3927,1.3929,0,1.3803,1.3838,1.3826,1.3841,1.3839,1.3864,1.3875,1.3839,1.3853,1.3855,1.3883,1.3905,1.392,1.3964,1.3948,1.3966,1.3949,1.4014,1.3952,1.3963,1.3952,1.3951,1.3956,1.4027,1.4029,1.4031,1.4032,0,1.3954,1.3939,1.3956,1.3971,1.3985,1.3995,1.4,1.4016,1.3978,1.3997,1.4022,1.4035,1.4059,1.4082,1.4096,1.4093,1.4058,1.4052,1.4066,1.4078,1.4088,1.4085,1.3885,1.4048,1.4046,1.4045,1.4044,1.4044,1.4067,1.4096,1.4093,1.4115,1.4115,1.4122,1.4148,1.4134,1.4155,1.4171,1.4149,1.4182,1.4181,1.4196,1.4198,1.4223,1.4196,1.4216,1.4221,1.4227,1.4236,1.4083,1.4226,1.4225,1.4225,1.4224,1.4224,0,1.4217,1.4212,1.4232,1.4242,1.426,1.4224,1.4229,1.4247,1.4276,1.4278,1.4295,1.4325,1.4348,1.4334,1.4353,1.4377,1.4361,1.4383,1.4382,1.4383,1.4258,1.4245,1.4396,1.4396,1.4396,1.4396,1.4396,1.4396,1.4297,1.4344,1.433,1.4378,1.4373,1.4404,1.441,1.4417,1.4419,1.4455,1.4473,1.4464,1.446,1.4479,1.4499,1.4495,1.4505,1.4533,1.4523,1.4408,1.4391,1.4375,1.4362,1.4535,1.4536,1.4646,1.4647,1.4647]}]]